User: anonymous   Login
Location: Fishcreek Rd Observing Site
(41.1865°N, 81.4271°W)
Time: 09:05:09
(UTC-04:00)
Language:

Iridium 75 - Orbit

View from above orbital plane
View from above orbital plane
View from above satellite
View from above satellite

Ground track
Ground track

The orbit data is extracted from the following two-line orbital elements,

1 25346U 98032E   15115.36117132  .00000611  00000-0  21114-3 0  9999
2 25346 086.4013 191.7269 0002335 096.0754 312.8251 14.34216436887327
Epoch (UTC): 25 April 2015 08:40:05
Eccentricity: 0.0002335
inclination: 86.4013°
perigee height: 776 km
apogee height: 779 km
right ascension of ascending node: 191.7269°
argument of perigee: 96.0754°
revolutions per day: 14.34216436
mean anomaly at epoch: 312.8251°
orbit number at epoch: 88732

The dashed part of the orbit path shows where the satellite is in the earth's shadow,  

DLR